Terminal Aerodrome Forecast
Issued by NWS Rapid City, SD

Home | Current Version | Previous Version | Graphics & Text | Print | Product List | Glossary On
Versions: 1 2 3 4 5 6 7 8 9 10 11 12 13 14 15 16 17
000
FTUS43 KUNR 190520
TAFRAP
TAF
KRAP 190520Z 1906/2006 01019KT 1SM -SN VV010
     FM191800 02014KT 3SM -SN BKN015 OVC030
     FM192200 10008KT P6SM -SN BKN035=

USA.gov is the U.S. government's official web portal to all federal, state and local government web resources and services.